This is the latest recevied weather packets stored in our database for station/object W1SCW. If no packets are shown the sender has not sent any weather packets the latest 1 day(s).
| Time | Temp. | Humidity | Pressure | Rain* | Wind** | Luminosity | Snow |
|---|---|---|---|---|---|---|---|
| 1778017896 | 28.89° C | 75% | 1005.3 hPa | 0 mm | 1.79 m/s, 207° | 169 W/m² | - |
| 1778017594 | 28.89° C | 75% | 1005.6 hPa | 0 mm | 1.79 m/s, 178° | 357 W/m² | - |
| 1778017290 | 29.44° C | 75% | 1005.6 hPa | 0 mm | 0 m/s | 230 W/m² | - |
| 1778016988 | 28.89° C | 74% | 1005.5 hPa | 0 mm | 2.68 m/s, 158° | 276 W/m² | - |
| 1778016684 | 28.89° C | 74% | 1005.7 hPa | 0 mm | 1.79 m/s, 202° | 220 W/m² | - |
| 1778016380 | 28.89° C | 75% | 1005.6 hPa | 0 mm | 1.79 m/s, 178° | 292 W/m² | - |
| 1778016078 | 29.44° C | 71% | 1005.7 hPa | 0 mm | 0.45 m/s, 126° | 319 W/m² | - |
| 1778015775 | 30° C | 72% | 1005.7 hPa | 0 mm | 1.79 m/s, 149° | 463 W/m² | - |
| 1778015472 | 29.44° C | 72% | 1005.7 hPa | 0 mm | 1.34 m/s, 149° | 363 W/m² | - |
| 1778015169 | 29.44° C | 72% | 1005.9 hPa | 0 mm | 1.79 m/s, 204° | 343 W/m² | - |
| 1778014866 | 29.44° C | 72% | 1005.9 hPa | 0 mm | 1.34 m/s, 210° | 384 W/m² | - |
| 1778014563 | 29.44° C | 71% | 1005.9 hPa | 0 mm | 3.58 m/s, 167° | 405 W/m² | - |
| 1778014261 | 28.89° C | 73% | 1006 hPa | 0 mm | 1.79 m/s, 155° | 416 W/m² | - |
| 1778013958 | 29.44° C | 72% | 1006.1 hPa | 0 mm | 1.79 m/s, 142° | 464 W/m² | - |
| 1778013655 | 29.44° C | 72% | 1006.2 hPa | 0 mm | 3.58 m/s, 183° | 397 W/m² | - |
| 1778013351 | 29.44° C | 71% | 1006.3 hPa | 0 mm | 3.58 m/s, 175° | 414 W/m² | - |
| 1778013049 | 29.44° C | 72% | 1006.3 hPa | 0 mm | 2.68 m/s, 212° | 382 W/m² | - |
| 1778012745 | 29.44° C | 72% | 1006.3 hPa | 0 mm | 0.89 m/s, 146° | 553 W/m² | - |
| 1778012441 | 29.44° C | 72% | 1006.4 hPa | 0 mm | 1.79 m/s, 136° | 405 W/m² | - |
| 1778012138 | 30° C | 71% | 1006.4 hPa | 0 mm | 1.79 m/s, 205° | 389 W/m² | - |
| 1778011836 | 29.44° C | 72% | 1006.7 hPa | 0 mm | 3.13 m/s, 217° | 506 W/m² | - |
| 1778011533 | 28.89° C | 73% | 1006.8 hPa | 0 mm | 1.79 m/s, 177° | 477 W/m² | - |
| 1778011230 | 28.89° C | 73% | 1006.9 hPa | 0 mm | 2.24 m/s, 130° | 383 W/m² | - |
| 1778010926 | 28.89° C | 74% | 1006.9 hPa | 0 mm | 1.79 m/s, 158° | 372 W/m² | - |
| 1778010624 | 28.89° C | 74% | 1006.7 hPa | 0 mm | 1.79 m/s, 177° | 399 W/m² | - |
* Rain latest hour (hover to see other rain measurements)
** Current wind speed in m/s (hover to see current wind gust speed)